Location: Newark
(44.6768°N, 22.5302°E)
Time: 06:21:14
(UTC+00:00)

AO-109 - Visible Passes

Search period start: 28 June 2022 00:00
Search period end: 08 July 2022 00:00
Orbit: 477 x 502 km, 60.7° (Epoch: 27 June)

Date Brightness Start Highest point End Pass type
(mag) Time Alt. Az. Time Alt. Az. Time Alt. Az.
03 Jul ? 01:48:53 11° SSW 01:52:19 55° SE 01:56:01 10° NE visible
04 Jul ? 01:25:17 17° SSW 01:27:54 48° SE 01:31:31 10° NE visible
05 Jul ? 01:01:38 23° S 01:03:27 42° SE 01:07:00 10° NE visible
06 Jul ? 00:37:54 29° SSE 00:39:00 36° SE 00:42:28 10° ENE visible
07 Jul ? 00:14:07 31° SE 00:14:32 32° ESE 00:17:54 10° ENE visible
07 Jul ? 01:48:41 10° WSW 01:52:01 30° NW 01:55:23 10° NNE visible
07 Jul ? 23:50:17 28° ESE 23:50:17 28° ESE 23:53:18 10° ENE visible
